QPF
0.01 0.00 0.00 0.01 0.01 0.01 0.02 0.02 0.02 0.01 0.01 0.01 0.01 0.00 0.00 0.01 0.01 0.01 0.01 0.00 0.00 0.00 0.00 0.00 0.00 0.00 0.00 0.00 0.00 0.00 0.00 0.00 0.00 0.00 0.00 0.01 0.01 0.01 0.01 0.01 0.00 0.01 0.01 0.01
0.01 0.00 0.00 0.01 0.01 0.01 0.01 0.01 0.01 0.01 0.01 0.01 0.01 0.00 0.00 0.00 0.00 0.00 0.00 0.00 0.00 0.00 0.00 0.00 0.00 0.00 0.00 0.00 0.00 0.00 0.00 0.00 0.00 0.00 0.00 0.01 0.01 0.01 0.01 0.01 0.01 0.00 0.00 0.00
0.01 0.01 0.01 0.01 0.02 0.01 0.02 0.02 0.02 0.02 0.02 0.01 0.01 0.01 0.00 0.00 0.00 0.00 0.00 0.00 0.00 0.00 0.00 0.00 0.00 0.00 0.00 0.00 0.00 0.00 0.00 0.00 0.00 0.00 0.00 0.00 0.01 0.01 0.02 0.02 0.01 0.01 0.01 0.01
0.02 0.01 0.02 0.02 0.02 0.01 0.02 0.03 0.02 0.02 0.01 0.01 0.01 0.01 0.01 0.01 0.00 0.00 0.00 0.00 0.00 0.00 0.00 0.00 0.00 0.00 0.00 0.00 0.00 0.00 0.00 0.00 0.00 0.00 0.00 0.00 0.00 0.01 0.01 0.02 0.02 0.01 0.01 0.02
0.03 0.02 0.02 0.02 0.02 0.02 0.02 0.03 0.02 0.02 0.01 0.01 0.00 0.01 0.01 0.01 0.00 0.00 0.00 0.00 0.00 0.00 0.00 0.00 0.00 0.00 0.00 0.00 0.00 0.00 0.00 0.00 0.00 0.01 0.01 0.00 0.00 0.01 0.01 0.01 0.02 0.01 0.01 0.02
0.04 0.03 0.02 0.03 0.02 0.02 0.02 0.03 0.02 0.02 0.02 0.01 0.01 0.01 0.01 0.01 0.00 0.00 0.00 0.00 0.00 0.00 0.00 0.00 0.00 0.00 0.00 0.00 0.00 0.00 0.00 0.00 0.00 0.01 0.01 0.00 0.00 0.01 0.01 0.01 0.02 0.02 0.01 0.02
0.03 0.03 0.02 0.02 0.01 0.02 0.04 0.04 0.02 0.02 0.02 0.02 0.02 0.02 0.01 0.01 0.01 0.00 0.00 0.00 0.00 0.00 0.00 0.00 0.00 0.00 0.00 0.00 0.00 0.00 0.00 0.00 0.00 0.00 0.00 0.00 0.01 0.01 0.01 0.01 0.02 0.02 0.02 0.02
0.03 0.03 0.02 0.01 0.01 0.03 0.04 0.02 0.02 0.03 0.03 0.03 0.03 0.02 0.01 0.01 0.01 0.01 0.00 0.00 0.00 0.00 0.00 0.00 0.00 0.00 0.00 0.00 0.00 0.00 0.00 0.00 0.00 0.00 0.00 0.00 0.00 0.01 0.01 0.01 0.01 0.01 0.01 0.02
0.03 0.04 0.03 0.02 0.02 0.03 0.03 0.03 0.03 0.03 0.03 0.03 0.03 0.03 0.02 0.02 0.02 0.01 0.01 0.01 0.00 0.00 0.00 0.00 0.00 0.00 0.00 0.00 0.00 0.00 0.00 0.00 0.00 0.00 0.00 0.00 0.00 0.00 0.00 0.00 0.00 0.01 0.01 0.01
0.03 0.04 0.02 0.02 0.02 0.02 0.02 0.03 0.03 0.03 0.03 0.03 0.03 0.03 0.03 0.02 0.01 0.02 0.01 0.01 0.00 0.00 0.00 0.00 0.00 0.00 0.00 0.00 0.00 0.00 0.00 0.00 0.00 0.00 0.00 0.00 0.00 0.00 0.00 0.00 0.01 0.01 0.01 0.01
0.02 0.02 0.01 0.01 0.02 0.02 0.02 0.02 0.02 0.02 0.02 0.03 0.03 0.03 0.03 0.02 0.02 0.02 0.02 0.02 0.02 0.01 0.01 0.01 0.00 0.00 0.00 0.00 0.00 0.00 0.00 0.00 0.00 0.00 0.00 0.00 0.00 0.00 0.00 0.01 0.01 0.01 0.01 0.01
0.02 0.02 0.02 0.02 0.02 0.02 0.02 0.02 0.02 0.02 0.02 0.02 0.02 0.03 0.03 0.02 0.02 0.02 0.02 0.02 0.02 0.02 0.01 0.01 0.01 0.01 0.01 0.01 0.01 0.01 0.01 0.01 0.00 0.00 0.00 0.00 0.00 0.00 0.00 0.01 0.01 0.01 0.01 0.01
0.02 0.01 0.01 0.02 0.01 0.01 0.02 0.02 0.01 0.01 0.01 0.02 0.02 0.03 0.03 0.03 0.03 0.03 0.02 0.02 0.02 0.02 0.02 0.02 0.02 0.02 0.01 0.01 0.01 0.01 0.01 0.01 0.01 0.01 0.01 0.01 0.01 0.01 0.01 0.00 0.01 0.01 0.01 0.01
0.01 0.01 0.01 0.01 0.01 0.01 0.01 0.02 0.01 0.01 0.01 0.01 0.02 0.02 0.03 0.03 0.03 0.03 0.03 0.02 0.01 0.01 0.01 0.01 0.01 0.01 0.02 0.01 0.01 0.01 0.01 0.01 0.01 0.01 0.01 0.01 0.01 0.01 0.01 0.01 0.01 0.01 0.01 0.01
0.01 0.01 0.01 0.01 0.01 0.01 0.01 0.01 0.01 0.01 0.01 0.01 0.01 0.02 0.02 0.02 0.02 0.03 0.03 0.02 0.02 0.01 0.01 0.01 0.01 0.01 0.01 0.01 0.02 0.02 0.02 0.02 0.02 0.02 0.01 0.01 0.01 0.01 0.01 0.01 0.02 0.01 0.01 0.01
0.01 0.01 0.01 0.01 0.01 0.01 0.01 0.01 0.01 0.01 0.01 0.02 0.02 0.02 0.01 0.01 0.01 0.02 0.03 0.03 0.02 0.02 0.02 0.02 0.02 0.02 0.02 0.02 0.02 0.02 0.01 0.01 0.01 0.01 0.01 0.01 0.01 0.01 0.02 0.02 0.02 0.02 0.02 0.01
0.02 0.01 0.01 0.01 0.01 0.01 0.01 0.01 0.02 0.02 0.02 0.02 0.02 0.01 0.01 0.01 0.01 0.02 0.02 0.02 0.02 0.02 0.01 0.01 0.02 0.01 0.01 0.02 0.02 0.02 0.01 0.01 0.01 0.01 0.01 0.01 0.01 0.01 0.02 0.02 0.02 0.02 0.02 0.01
0.02 0.02 0.02 0.01 0.02 0.02 0.02 0.02 0.02 0.02 0.02 0.02 0.02 0.01 0.01 0.01 0.01 0.02 0.02 0.02 0.02 0.02 0.02 0.01 0.01 0.01 0.01 0.02 0.02 0.02 0.01 0.01 0.01 0.01 0.01 0.01 0.01 0.01 0.02 0.02 0.02 0.02 0.01 0.01
0.02 0.02 0.02 0.02 0.02 0.02 0.02 0.02 0.02 0.02 0.02 0.02 0.02 0.02 0.02 0.02 0.02 0.02 0.02 0.02 0.01 0.02 0.02 0.02 0.02 0.01 0.01 0.02 0.02 0.02 0.01 0.01 0.01 0.01 0.01 0.01 0.01 0.01 0.02 0.02 0.02 0.02 0.02 0.01
0.02 0.02 0.02 0.02 0.02 0.02 0.02 0.02 0.02 0.02 0.02 0.02 0.02 0.02 0.02 0.02 0.02 0.02 0.01 0.01 0.02 0.02 0.02 0.01 0.01 0.01 0.01 0.01 0.01 0.01 0.01 0.01 0.01 0.01 0.01 0.01 0.01 0.02 0.02 0.02 0.02 0.02 0.02 0.02
0.02 0.02 0.02 0.02 0.02 0.02 0.02 0.02 0.02 0.02 0.02 0.02 0.01 0.01 0.01 0.01 0.01 0.01 0.01 0.01 0.01 0.01 0.01 0.01 0.01 0.01 0.01 0.01 0.01 0.01 0.01 0.01 0.01 0.01 0.01 0.01 0.01 0.01 0.02 0.02 0.02 0.02 0.03 0.03
0.02 0.02 0.02 0.02 0.02 0.02 0.02 0.02 0.02 0.01 0.01 0.01 0.01 0.01 0.01 0.01 0.01 0.01 0.01 0.01 0.01 0.01 0.01 0.01 0.00 0.01 0.01 0.01 0.01 0.01 0.01 0.01 0.01 0.01 0.01 0.01 0.01 0.01 0.01 0.01 0.02 0.02 0.02 0.02
0.01 0.02 0.02 0.02 0.01 0.02 0.02 0.01 0.01 0.01 0.01 0.01 0.01 0.01 0.01 0.01 0.01 0.01 0.01 0.01 0.01 0.01 0.00 0.00 0.00 0.01 0.01 0.01 0.00 0.01 0.01 0.01 0.01 0.01 0.01 0.01 0.01 0.01 0.01 0.01 0.01 0.01 0.01 0.02
0.01 0.01 0.02 0.02 0.02 0.01 0.01 0.01 0.01 0.01 0.01 0.01 0.01 0.01 0.01 0.01 0.01 0.01 0.01 0.01 0.01 0.00 0.00 0.00 0.00 0.00 0.01 0.01 0.00 0.00 0.01 0.01 0.01 0.01 0.01 0.01 0.01 0.01 0.01 0.01 0.01 0.01 0.01 0.01
0.01 0.01 0.01 0.02 0.02 0.02 0.01 0.01 0.01 0.01 0.01 0.01 0.02 0.01 0.01 0.01 0.01 0.01 0.00 0.00 0.00 0.00 0.00 0.00 0.00 0.00 0.00 0.00 0.00 0.00 0.01 0.01 0.01 0.01 0.01 0.01 0.01 0.01 0.01 0.01 0.01 0.01 0.01 0.01
0.01 0.01 0.01 0.01 0.02 0.02 0.02 0.01 0.01 0.02 0.02 0.02 0.02 0.02 0.01 0.01 0.01 0.01 0.00 0.00 0.00 0.00 0.00 0.00 0.00 0.00 0.00 0.00 0.01 0.01 0.01 0.01 0.01 0.01 0.01 0.01 0.01 0.01 0.01 0.01 0.01 0.01 0.01 0.02
0.01 0.01 0.02 0.02 0.02 0.02 0.02 0.02 0.02 0.02 0.02 0.02 0.02 0.02 0.01 0.01 0.01 0.01 0.00 0.00 0.00 0.00 0.00 0.00 0.00 0.00 0.01 0.01 0.01 0.01 0.01 0.01 0.01 0.01 0.01 0.01 0.01 0.01 0.01 0.01 0.01 0.01 0.01 0.02
MSLP
1022.61 1023.06 1023.37 1023.52 1023.48 1023.28 1022.95 1022.55 1022.13 1021.78 1021.54 1021.47 1021.61 1021.93 1022.43 1023.06 1023.75 1024.46 1025.12 1025.68 1026.09 1026.34 1026.43 1026.37 1026.16 1025.84 1025.44 1024.96 1024.45 1023.92 1023.38 1022.85 1022.35 1021.86 1021.41 1020.98 1020.57 1020.17 1019.76 1019.32 1018.84 1018.30 1017.71 1017.06
1022.31 1022.68 1022.91 1022.99 1022.90 1022.67 1022.33 1021.94 1021.56 1021.25 1021.08 1021.08 1021.27 1021.65 1022.19 1022.85 1023.56 1024.27 1024.93 1025.48 1025.89 1026.14 1026.23 1026.18 1026.00 1025.71 1025.34 1024.91 1024.44 1023.96 1023.46 1022.98 1022.50 1022.05 1021.61 1021.18 1020.77 1020.36 1019.94 1019.49 1019.01 1018.49 1017.92 1017.31
1021.94 1022.18 1022.30 1022.28 1022.12 1021.85 1021.50 1021.13 1020.81 1020.58 1020.49 1020.59 1020.87 1021.33 1021.93 1022.63 1023.37 1024.09 1024.75 1025.29 1025.68 1025.93 1026.02 1025.97 1025.80 1025.54 1025.20 1024.82 1024.40 1023.98 1023.54 1023.11 1022.69 1022.27 1021.86 1021.46 1021.05 1020.62 1020.19 1019.72 1019.23 1018.71 1018.15 1017.57
1021.47 1021.56 1021.53 1021.39 1021.14 1020.82 1020.47 1020.14 1019.89 1019.75 1019.78 1019.99 1020.39 1020.95 1021.63 1022.40 1023.18 1023.92 1024.58 1025.12 1025.51 1025.74 1025.82 1025.77 1025.61 1025.35 1025.05 1024.70 1024.33 1023.96 1023.60 1023.23 1022.88 1022.52 1022.15 1021.78 1021.38 1020.96 1020.51 1020.03 1019.52 1018.99 1018.43 1017.86
1020.90 1020.80 1020.62 1020.34 1020.01 1019.65 1019.31 1019.03 1018.86 1018.84 1019.00 1019.34 1019.86 1020.54 1021.32 1022.16 1022.99 1023.78 1024.46 1025.00 1025.38 1025.60 1025.67 1025.61 1025.43 1025.18 1024.89 1024.56 1024.24 1023.92 1023.62 1023.33 1023.04 1022.75 1022.45 1022.11 1021.74 1021.33 1020.88 1020.39 1019.86 1019.31 1018.74 1018.18
1020.19 1019.93 1019.59 1019.21 1018.81 1018.43 1018.11 1017.89 1017.83 1017.93 1018.22 1018.70 1019.35 1020.15 1021.02 1021.94 1022.83 1023.66 1024.36 1024.91 1025.30 1025.51 1025.57 1025.49 1025.31 1025.05 1024.75 1024.44 1024.13 1023.86 1023.60 1023.38 1023.16 1022.94 1022.70 1022.42 1022.09 1021.70 1021.25 1020.75 1020.21 1019.64 1019.07 1018.49
1019.36 1018.95 1018.50 1018.04 1017.61 1017.24 1016.98 1016.85 1016.90 1017.13 1017.55 1018.16 1018.93 1019.82 1020.78 1021.76 1022.70 1023.56 1024.29 1024.86 1025.26 1025.47 1025.52 1025.43 1025.23 1024.96 1024.65 1024.34 1024.04 1023.78 1023.57 1023.39 1023.23 1023.07 1022.90 1022.67 1022.38 1022.02 1021.59 1021.09 1020.54 1019.96 1019.37 1018.79
1018.37 1017.87 1017.37 1016.89 1016.49 1016.18 1016.01 1016.00 1016.17 1016.53 1017.07 1017.78 1018.64 1019.59 1020.61 1021.63 1022.60 1023.49 1024.24 1024.82 1025.23 1025.46 1025.51 1025.42 1025.22 1024.93 1024.61 1024.29 1023.99 1023.74 1023.54 1023.39 1023.27 1023.16 1023.03 1022.85 1022.61 1022.28 1021.86 1021.37 1020.82 1020.23 1019.62 1019.04
1017.23 1016.71 1016.22 1015.79 1015.47 1015.28 1015.24 1015.37 1015.68 1016.16 1016.81 1017.60 1018.51 1019.50 1020.53 1021.55 1022.53 1023.41 1024.17 1024.77 1025.19 1025.44 1025.51 1025.43 1025.24 1024.95 1024.62 1024.29 1023.98 1023.73 1023.53 1023.39 1023.29 1023.21 1023.12 1022.98 1022.77 1022.47 1022.07 1021.59 1021.04 1020.45 1019.84 1019.25
1015.94 1015.46 1015.05 1014.74 1014.56 1014.53 1014.66 1014.96 1015.41 1016.02 1016.75 1017.59 1018.52 1019.51 1020.52 1021.51 1022.46 1023.32 1024.07 1024.67 1025.12 1025.39 1025.50 1025.45 1025.28 1025.01 1024.69 1024.35 1024.04 1023.77 1023.56 1023.42 1023.32 1023.25 1023.18 1023.07 1022.88 1022.60 1022.23 1021.76 1021.22 1020.63 1020.02 1019.43
1014.55 1014.15 1013.87 1013.72 1013.73 1013.91 1014.23 1014.71 1015.31 1016.03 1016.83 1017.71 1018.64 1019.59 1020.55 1021.48 1022.38 1023.20 1023.93 1024.53 1024.99 1025.30 1025.45 1025.45 1025.32 1025.09 1024.79 1024.46 1024.15 1023.87 1023.65 1023.49 1023.39 1023.32 1023.25 1023.15 1022.98 1022.73 1022.38 1021.93 1021.40 1020.82 1020.22 1019.62
1013.11 1012.83 1012.70 1012.74 1012.95 1013.33 1013.86 1014.51 1015.27 1016.09 1016.96 1017.86 1018.77 1019.68 1020.57 1021.44 1022.27 1023.04 1023.74 1024.33 1024.81 1025.15 1025.35 1025.41 1025.34 1025.15 1024.89 1024.59 1024.28 1024.01 1023.78 1023.61 1023.49 1023.41 1023.34 1023.25 1023.10 1022.87 1022.54 1022.12 1021.61 1021.05 1020.45 1019.87
1011.73 1011.57 1011.59 1011.79 1012.19 1012.76 1013.46 1014.28 1015.16 1016.09 1017.02 1017.94 1018.84 1019.71 1020.55 1021.35 1022.12 1022.85 1023.51 1024.10 1024.59 1024.97 1025.22 1025.34 1025.32 1025.20 1024.98 1024.72 1024.43 1024.16 1023.93 1023.75 1023.62 1023.54 1023.47 1023.38 1023.25 1023.04 1022.75 1022.35 1021.88 1021.33 1020.76 1020.18
1010.54 1010.46 1010.58 1010.91 1011.44 1012.14 1012.99 1013.93 1014.92 1015.93 1016.93 1017.88 1018.78 1019.63 1020.44 1021.20 1021.93 1022.62 1023.26 1023.84 1024.35 1024.76 1025.05 1025.23 1025.27 1025.21 1025.04 1024.82 1024.56 1024.30 1024.07 1023.89 1023.76 1023.68 1023.61 1023.54 1023.43 1023.25 1022.99 1022.63 1022.19 1021.68 1021.12 1020.56
1009.66 1009.60 1009.75 1010.12 1010.71 1011.49 1012.41 1013.43 1014.50 1015.57 1016.62 1017.62 1018.55 1019.41 1020.22 1020.97 1021.68 1022.36 1023.00 1023.58 1024.10 1024.54 1024.87 1025.09 1025.19 1025.18 1025.06 1024.88 1024.65 1024.42 1024.21 1024.03 1023.90 1023.82 1023.76 1023.70 1023.61 1023.47 1023.25 1022.94 1022.53 1022.06 1021.53 1020.98
1009.16 1009.05 1009.16 1009.49 1010.05 1010.82 1011.74 1012.77 1013.87 1014.99 1016.08 1017.13 1018.11 1019.02 1019.86 1020.64 1021.38 1022.07 1022.72 1023.32 1023.85 1024.31 1024.68 1024.93 1025.08 1025.11 1025.05 1024.90 1024.71 1024.51 1024.31 1024.15 1024.03 1023.95 1023.90 1023.86 1023.79 1023.68 1023.50 1023.23 1022.87 1022.43 1021.92 1021.39
1009.06 1008.84 1008.82 1009.03 1009.48 1010.14 1010.99 1011.98 1013.07 1014.20 1015.33 1016.43 1017.48 1018.46 1019.37 1020.21 1020.99 1021.73 1022.41 1023.03 1023.59 1024.08 1024.47 1024.76 1024.94 1025.02 1025.00 1024.90 1024.75 1024.58 1024.41 1024.26 1024.15 1024.08 1024.04 1024.01 1023.96 1023.87 1023.71 1023.48 1023.16 1022.75 1022.27 1021.75
1009.30 1008.91 1008.71 1008.74 1009.00 1009.50 1010.21 1011.10 1012.13 1013.25 1014.40 1015.56 1016.67 1017.74 1018.73 1019.66 1020.52 1021.31 1022.04 1022.71 1023.30 1023.81 1024.24 1024.56 1024.78 1024.91 1024.93 1024.88 1024.78 1024.65 1024.51 1024.39 1024.30 1024.23 1024.19 1024.16 1024.11 1024.03 1023.89 1023.68 1023.38 1023.00 1022.54 1022.03
1009.77 1009.19 1008.77 1008.56 1008.59 1008.89 1009.43 1010.19 1011.13 1012.20 1013.36 1014.55 1015.73 1016.88 1017.97 1018.99 1019.94 1020.81 1021.60 1022.32 1022.95 1023.51 1023.97 1024.34 1024.61 1024.79 1024.88 1024.89 1024.85 1024.77 1024.67 1024.58 1024.50 1024.44 1024.39 1024.34 1024.29 1024.19 1024.05 1023.83 1023.54 1023.17 1022.73 1022.23
1010.30 1009.51 1008.87 1008.43 1008.23 1008.32 1008.67 1009.29 1010.12 1011.14 1012.28 1013.50 1014.74 1015.96 1017.14 1018.25 1019.28 1020.22 1021.09 1021.86 1022.55 1023.15 1023.66 1024.09 1024.43 1024.67 1024.84 1024.93 1024.96 1024.95 1024.90 1024.85 1024.79 1024.72 1024.66 1024.59 1024.50 1024.38 1024.21 1023.97 1023.67 1023.30 1022.86 1022.37
1010.73 1009.76 1008.93 1008.28 1007.89 1007.79 1007.98 1008.46 1009.20 1010.15 1011.27 1012.49 1013.77 1015.05 1016.29 1017.48 1018.58 1019.60 1020.52 1021.35 1022.10 1022.76 1023.34 1023.83 1024.25 1024.58 1024.84 1025.02 1025.14 1025.20 1025.22 1025.21 1025.17 1025.11 1025.03 1024.92 1024.79 1024.62 1024.40 1024.14 1023.81 1023.42 1022.97 1022.48
1010.93 1009.84 1008.87 1008.08 1007.55 1007.31 1007.38 1007.76 1008.42 1009.33 1010.42 1011.64 1012.93 1014.24 1015.53 1016.76 1017.92 1018.99 1019.96 1020.85 1021.65 1022.37 1023.01 1023.59 1024.09 1024.51 1024.87 1025.16 1025.37 1025.52 1025.61 1025.65 1025.63 1025.58 1025.48 1025.34 1025.15 1024.93 1024.66 1024.34 1023.98 1023.56 1023.10 1022.60
1010.86 1009.71 1008.67 1007.82 1007.22 1006.92 1006.94 1007.27 1007.88 1008.75 1009.82 1011.02 1012.32 1013.64 1014.95 1016.20 1017.38 1018.48 1019.49 1020.41 1021.25 1022.03 1022.74 1023.38 1023.97 1024.50 1024.95 1025.34 1025.65 1025.89 1026.05 1026.14 1026.15 1026.10 1025.98 1025.81 1025.58 1025.30 1024.97 1024.60 1024.19 1023.75 1023.27 1022.76
1010.54 1009.39 1008.37 1007.54 1006.96 1006.67 1006.69 1007.02 1007.63 1008.48 1009.53 1010.73 1012.01 1013.32 1014.61 1015.86 1017.05 1018.15 1019.17 1020.11 1020.99 1021.80 1022.56 1023.27 1023.93 1024.53 1025.08 1025.55 1025.95 1026.27 1026.49 1026.63 1026.67 1026.62 1026.50 1026.29 1026.02 1025.69 1025.32 1024.90 1024.45 1023.97 1023.47 1022.95
1010.05 1008.97 1008.04 1007.30 1006.81 1006.60 1006.68 1007.05 1007.69 1008.55 1009.60 1010.77 1012.03 1013.31 1014.58 1015.80 1016.97 1018.05 1019.07 1020.01 1020.89 1021.72 1022.51 1023.26 1023.97 1024.63 1025.24 1025.78 1026.24 1026.62 1026.89 1027.06 1027.12 1027.09 1026.95 1026.72 1026.42 1026.06 1025.64 1025.18 1024.69 1024.19 1023.67 1023.15
1009.50 1008.55 1007.76 1007.17 1006.83 1006.74 1006.92 1007.37 1008.05 1008.93 1009.98 1011.14 1012.36 1013.61 1014.83 1016.02 1017.15 1018.20 1019.19 1020.12 1020.99 1021.82 1022.62 1023.38 1024.11 1024.80 1025.43 1026.01 1026.50 1026.90 1027.20 1027.39 1027.47 1027.43 1027.29 1027.05 1026.72 1026.33 1025.88 1025.40 1024.88 1024.36 1023.83 1023.30
1009.03 1008.24 1007.63 1007.22 1007.03 1007.09 1007.39 1007.92 1008.65 1009.56 1010.60 1011.74 1012.93 1014.13 1015.31 1016.45 1017.54 1018.56 1019.52 1020.42 1021.27 1022.09 1022.87 1023.62 1024.34 1025.02 1025.65 1026.22 1026.71 1027.11 1027.41 1027.59 1027.67 1027.62 1027.47 1027.21 1026.87 1026.46 1026.00 1025.49 1024.96 1024.42 1023.88 1023.35
Thickness
5436 5445 5446 5451 5456 5460 5462 5463 5466 5479 5486 5496 5499 5502 5504 5505 5507 5510 5512 5514 5516 5517 5518 5520 5522 5524 5526 5526 5526 5525 5523 5522 5520 5519 5517 5515 5513 5511 5508 5505 5503 5501 5499 5498
5428 5440 5443 5445 5451 5455 5460 5463 5466 5473 5478 5488 5489 5490 5492 5494 5498 5500 5501 5504 5506 5508 5509 5510 5512 5514 5515 5515 5515 5515 5514 5512 5511 5510 5508 5506 5504 5502 5499 5497 5495 5493 5491 5489
5415 5428 5434 5434 5443 5448 5451 5457 5463 5467 5474 5475 5477 5481 5483 5485 5488 5489 5492 5494 5496 5498 5499 5501 5503 5505 5505 5505 5505 5505 5504 5503 5502 5501 5499 5497 5495 5493 5490 5488 5486 5484 5482 5480
5401 5411 5414 5438 5442 5446 5448 5452 5456 5462 5468 5470 5471 5471 5473 5476 5479 5480 5482 5485 5486 5488 5490 5492 5493 5495 5495 5496 5496 5495 5494 5493 5492 5490 5489 5487 5485 5483 5481 5479 5477 5475 5473 5472
5391 5399 5412 5432 5435 5435 5438 5442 5449 5453 5458 5460 5461 5461 5463 5467 5470 5472 5473 5475 5476 5478 5480 5482 5483 5485 5486 5486 5486 5485 5484 5482 5482 5481 5479 5477 5475 5474 5472 5470 5468 5466 5464 5462
5384 5395 5406 5426 5431 5434 5436 5435 5442 5445 5447 5449 5451 5450 5455 5458 5460 5461 5462 5464 5466 5468 5471 5473 5474 5476 5476 5476 5475 5475 5474 5473 5472 5471 5470 5468 5466 5464 5463 5461 5458 5456 5454 5452
5377 5384 5400 5417 5421 5427 5424 5429 5435 5436 5439 5441 5442 5445 5447 5447 5449 5451 5452 5454 5456 5458 5460 5463 5464 5466 5466 5465 5465 5465 5464 5463 5462 5461 5460 5458 5457 5455 5453 5451 5448 5446 5444 5442
5373 5380 5397 5410 5409 5411 5416 5421 5424 5427 5429 5429 5430 5433 5436 5438 5438 5440 5441 5443 5446 5447 5449 5451 5453 5455 5455 5454 5454 5454 5454 5453 5452 5451 5450 5449 5447 5445 5443 5441 5438 5436 5434 5433
5379 5390 5396 5398 5401 5405 5408 5410 5414 5416 5418 5419 5419 5422 5425 5426 5427 5429 5430 5431 5434 5436 5437 5439 5441 5443 5443 5442 5443 5443 5442 5441 5440 5440 5439 5438 5436 5435 5433 5430 5428 5427 5425 5424
5373 5383 5386 5388 5391 5394 5398 5401 5404 5406 5408 5410 5410 5412 5413 5414 5415 5416 5418 5420 5422 5424 5425 5426 5428 5430 5431 5431 5432 5432 5431 5430 5430 5429 5428 5427 5426 5425 5423 5421 5419 5418 5416 5415
5367 5374 5378 5382 5382 5385 5389 5392 5395 5396 5398 5400 5401 5401 5402 5402 5403 5404 5406 5407 5409 5411 5412 5413 5415 5416 5418 5420 5421 5421 5420 5420 5419 5419 5418 5417 5416 5414 5414 5413 5411 5410 5408 5407
5365 5367 5367 5371 5374 5377 5380 5383 5385 5386 5387 5389 5391 5391 5391 5391 5391 5393 5394 5395 5397 5398 5399 5401 5403 5404 5406 5408 5410 5410 5410 5409 5408 5408 5408 5407 5406 5405 5405 5404 5404 5403 5402 5401
5355 5359 5360 5363 5366 5369 5371 5373 5376 5377 5378 5378 5379 5380 5380 5380 5380 5381 5382 5383 5385 5386 5387 5389 5391 5392 5394 5396 5398 5399 5399 5398 5398 5398 5398 5397 5397 5396 5395 5396 5396 5395 5395 5394
5347 5350 5353 5355 5355 5358 5361 5363 5365 5366 5367 5368 5368 5368 5369 5369 5370 5371 5371 5372 5374 5375 5377 5378 5380 5381 5383 5385 5386 5387 5388 5389 5389 5388 5388 5387 5387 5386 5386 5386 5386 5386 5386 5387
5338 5342 5343 5345 5347 5349 5351 5353 5354 5354 5356 5357 5357 5358 5359 5359 5360 5360 5361 5363 5365 5366 5367 5368 5369 5370 5372 5375 5376 5377 5378 5378 5379 5378 5378 5378 5378 5378 5378 5377 5377 5377 5377 5378
5330 5333 5334 5336 5337 5339 5341 5342 5344 5344 5346 5347 5347 5348 5349 5350 5350 5351 5352 5354 5355 5356 5357 5358 5360 5361 5363 5365 5367 5368 5368 5370 5370 5370 5370 5370 5370 5370 5369 5369 5369 5368 5368 5368
5321 5323 5324 5326 5327 5328 5330 5332 5334 5335 5336 5336 5337 5339 5340 5341 5341 5342 5343 5344 5346 5347 5348 5349 5351 5353 5355 5357 5358 5358 5359 5360 5362 5361 5361 5361 5361 5361 5361 5361 5361 5361 5361 5361
5316 5318 5318 5319 5319 5320 5322 5323 5325 5326 5326 5327 5328 5329 5330 5331 5332 5332 5333 5335 5337 5338 5339 5341 5343 5345 5347 5349 5350 5350 5351 5352 5352 5353 5353 5353 5354 5354 5354 5354 5354 5354 5355 5355
5307 5309 5310 5312 5313 5314 5314 5315 5316 5317 5318 5319 5319 5320 5321 5321 5323 5324 5325 5327 5329 5330 5331 5334 5337 5339 5340 5341 5343 5343 5344 5344 5345 5345 5346 5347 5346 5346 5347 5347 5347 5348 5348 5349
5297 5300 5301 5303 5304 5306 5306 5307 5308 5308 5309 5310 5311 5312 5312 5313 5315 5316 5318 5319 5321 5323 5325 5327 5329 5331 5332 5334 5336 5336 5337 5337 5338 5338 5338 5338 5339 5340 5340 5341 5342 5342 5342 5342
5288 5290 5292 5294 5296 5297 5299 5299 5300 5301 5302 5303 5304 5304 5305 5306 5308 5309 5311 5312 5314 5317 5319 5322 5323 5324 5325 5327 5329 5329 5329 5330 5330 5330 5331 5332 5332 5333 5334 5335 5335 5336 5336 5336
5278 5280 5283 5285 5288 5289 5291 5292 5293 5294 5294 5295 5296 5297 5298 5299 5301 5302 5304 5305 5308 5312 5313 5315 5316 5318 5320 5321 5322 5322 5322 5323 5323 5324 5324 5325 5326 5327 5327 5328 5329 5329 5329 5329
5270 5272 5275 5277 5280 5281 5283 5284 5286 5287 5287 5288 5290 5291 5293 5294 5295 5297 5298 5300 5303 5306 5307 5308 5311 5313 5314 5314 5314 5315 5315 5316 5316 5317 5318 5319 5319 5320 5321 5322 5322 5322 5322 5322
5263 5265 5267 5270 5272 5274 5275 5277 5279 5280 5281 5282 5284 5285 5287 5288 5289 5291 5293 5295 5298 5300 5301 5303 5305 5307 5308 5307 5307 5308 5309 5310 5310 5311 5312 5312 5313 5314 5314 5315 5316 5316 5316 5315
5255 5258 5260 5263 5266 5268 5269 5270 5271 5273 5274 5275 5277 5279 5281 5282 5284 5285 5287 5289 5292 5294 5295 5297 5299 5300 5300 5300 5301 5302 5303 5304 5305 5306 5306 5306 5307 5308 5308 5309 5310 5310 5310 5309
5248 5251 5254 5257 5259 5261 5263 5265 5266 5267 5269 5270 5271 5273 5275 5277 5278 5279 5281 5283 5285 5288 5289 5290 5291 5293 5294 5295 5296 5297 5297 5298 5299 5299 5300 5300 5301 5302 5302 5303 5303 5304 5304 5304
5242 5245 5248 5251 5254 5256 5258 5260 5261 5262 5263 5265 5266 5268 5269 5271 5273 5274 5276 5278 5279 5281 5283 5285 5286 5287 5288 5289 5290 5291 5292 5293 5293 5294 5294 5295 5295 5296 5296 5297 5297 5298 5298 5299